Location: ??????????
(44.2167°N, 135.5333°E)
Time: 13:53:03
(UTC+00:00)

USA 307 - Pass Details

Date: 15 June 2025
Orbit: 495 x 502 km, 54.0° (Epoch: 10 March)

Event Time Altitude Azimuth Distance (km) Brightness Sun altitude
Exits shadow 14:45:54 53° 293° (WNW) 585 3.0 -22.4°
Maximum altitude 14:46:22 59° 328° (NNW) 556 3.0 -22.4°
Drops below altitude 10° 14:50:18 10° 49° (NE) 1,706 5.8 -22.4°
Sets 14:52:35 0° 53° (NE) 2,594 6.8 -22.4°
